TimeEST,TemperatureF,Dew PointF,Humidity,Sea Level PressureIn,VisibilityMPH,Wind Direction,Wind SpeedMPH,Gust SpeedMPH,PrecipitationIn,Events,Conditions,WindDirDegrees,DateUTC
12:55 AM,30.7,25.9,82,30.50,10.0,South,3.5,-,N/A,,Clear,170,2013-01-19 05:55:00
1:55 AM,34.7,26.2,71,30.51,10.0,South,8.1,-,N/A,,Clear,180,2013-01-19 06:55:00
2:55 AM,34.5,26.1,71,30.50,10.0,South,6.9,-,N/A,,Clear,170,2013-01-19 07:55:00
3:55 AM,34.7,25.9,70,30.48,10.0,South,8.1,-,N/A,,Clear,190,2013-01-19 08:55:00
4:55 AM,34.9,25.9,70,30.47,10.0,South,6.9,-,N/A,,Clear,190,2013-01-19 09:55:00
5:55 AM,34.5,25.5,70,30.46,10.0,South,4.6,-,N/A,,Clear,190,2013-01-19 10:55:00
6:55 AM,34.2,24.3,67,30.46,10.0,SSW,6.9,-,N/A,,Clear,210,2013-01-19 11:55:00
7:55 AM,34.5,25.2,69,30.46,10.0,SSW,8.1,-,N/A,,Clear,210,2013-01-19 12:55:00
8:55 AM,36.0,27.3,71,30.47,10.0,SW,6.9,-,N/A,,Clear,230,2013-01-19 13:55:00
9:55 AM,38.8,28.2,66,30.47,10.0,SSW,5.8,-,N/A,,Clear,200,2013-01-19 14:55:00
10:55 AM,42.6,29.3,59,30.44,10.0,SSW,6.9,-,N/A,,Clear,210,2013-01-19 15:55:00
11:55 AM,45.5,29.1,53,30.39,10.0,SSW,9.2,-,N/A,,Clear,200,2013-01-19 16:55:00
12:55 PM,48.0,28.9,48,30.33,10.0,SSW,9.2,-,N/A,,Clear,210,2013-01-19 17:55:00
1:55 PM,49.6,28.6,44,30.28,10.0,South,8.1,-,N/A,,Clear,180,2013-01-19 18:55:00
2:55 PM,51.4,26.6,38,30.25,10.0,SSW,9.2,-,N/A,,Clear,200,2013-01-19 19:55:00
3:55 PM,52.0,28.6,41,30.23,10.0,SSW,6.9,-,N/A,,Clear,200,2013-01-19 20:55:00
4:55 PM,50.2,28.2,43,30.22,10.0,SSW,8.1,-,N/A,,Clear,210,2013-01-19 21:55:00
5:55 PM,47.1,29.1,50,30.21,10.0,SSW,3.5,-,N/A,,Clear,200,2013-01-19 22:55:00
6:55 PM,45.5,29.1,53,30.20,10.0,Variable,3.5,-,N/A,,Clear,0,2013-01-19 23:55:00
7:55 PM,45.1,29.3,54,30.20,10.0,SSW,5.8,-,N/A,,Clear,200,2013-01-20 00:55:00
8:55 PM,45.3,30.2,56,30.18,10.0,SSW,9.2,-,N/A,,Clear,200,2013-01-20 01:55:00
9:55 PM,44.4,30.0,57,30.17,10.0,SSW,6.9,-,N/A,,Clear,200,2013-01-20 02:55:00
10:55 PM,43.2,29.8,59,30.15,10.0,Variable,5.8,-,N/A,,Clear,0,2013-01-20 03:55:00
11:55 PM,42.3,30.0,62,30.12,10.0,Variable,4.6,-,N/A,,Clear,0,2013-01-20 04:55:00